Location: Mohawk View
(42.7837°N, 73.7885°W)
Time: 13:18:24
(UTC+00:00)

Cosmos 1932 - Pass Details

Date: 17 June 2021
Orbit: 942 x 988 km, 65.0° (Epoch: 26 July)

Event Time Altitude Azimuth Distance (km) Brightness Sun altitude
Rises 06:40:47 0° 326° (NW) 3,624 7.9 -19.6°
Reaches altitude 10° 06:43:21 10° 327° (NNW) 2,671 7.2 -19.4°
Maximum altitude 06:49:36 87° 57° (ENE) 949 4.4 -18.9°
Drops below altitude 10° 06:55:47 10° 147° (SSE) 2,650 6.5 -18.3°
Enters shadow 06:58:05 - 148° (SSE) 3,508 7.1 -18.1°
